[TLELIST] Archives

 

[list_settings.list_name] Current TLEs

December 31st 2011 PST

HST 1 20580U 90037B 11363.92126854 .00001589 00000-0 10574-3 0 9156 2 20580 028.4690 177.3802 0003400 046.5950 313.4881 15.02042309989101 ISS (ZARYA) 1 25544U 98067A 11364.12565204 .00014934 00000-0 19382-3 0 7221 2 25544 051.6439 255.2506 0024118 220.9198 286.8842 15.58740699751490 CXO 1 25867U 99040B 11364.66666667 -.00001068 00000-0 00000+0 0 6839 2 25867 070.9722 017.5030 8735314 277.6758 357.3528 00.37805747 8514 ____________________________________________________________________ These 2-Line ...Continue Reading

[list_settings.list_name] Current TLEs

December 30th 2011 PST

HST 1 20580U 90037B 11362.92458795 .00001653 00000-0 11045-3 0 9142 2 20580 028.4692 183.8965 0003326 036.2633 323.8125 15.02039929988958 ISS (ZARYA) 1 25544U 98067A 11363.34890169 .00015976 00000-0 20698-3 0 7190 2 25544 051.6444 259.1493 0024179 218.4460 247.7944 15.58721179751373 CXO 1 25867U 99040B 11364.66666667 -.00001068 00000-0 00000+0 0 6839 2 25867 070.9722 017.5030 8735314 277.6758 357.3528 00.37805747 8514 ____________________________________________________________________ These 2-Line ...Continue Reading

[list_settings.list_name] Current TLEs

December 29th 2011 PST

HST 1 20580U 90037B 11361.92790367 .00001766 00000-0 11890-3 0 9137 2 20580 028.4694 190.4162 0003209 024.8023 335.2544 15.02037785988803 ISS (ZARYA) 1 25544U 98067A 11362.49475694 .00017541 00000-0 22675-3 0 7127 2 25544 051.6448 263.4367 0024143 215.3962 134.7706 15.58699685751231 CXO 1 25867U 99040B 11362.00000000 -.00000971 00000-0 00000+0 0 6829 2 25867 070.9478 017.7115 8735616 277.6486 354.3974 00.37803186 8507 ____________________________________________________________________ These 2-Line ...Continue Reading

[list_settings.list_name] Current TLEs

December 28th 2011 PST

HST 1 20580U 90037B 11359.00429875 .00001927 00000-0 13091-3 0 9129 2 20580 028.4697 209.5320 0003107 350.4396 009.6280 15.02029362988364 ISS (ZARYA) 1 25544U 98067A 11361.36079905 .00018994 00000-0 24526-3 0 7060 2 25544 051.6447 269.1278 0024161 210.9195 252.1108 15.58664126751067 CXO 1 25867U 99040B 11362.00000000 -.00000971 00000-0 00000+0 0 6829 2 25867 070.9478 017.7115 8735616 277.6486 354.3974 00.37803186 8507 ____________________________________________________________________ These 2-Line ...Continue Reading

[list_settings.list_name] Current TLEs

December 27th 2011 PST

HST 1 20580U 90037B 11359.00429875 .00001927 00000-0 13091-3 0 9129 2 20580 028.4697 209.5320 0003107 350.4396 009.6280 15.02029362988364 ISS (ZARYA) 1 25544U 98067A 11360.39968991 .00015324 00000-0 19937-3 0 6999 2 25544 051.6440 273.9550 0024676 207.8778 258.6754 15.58633731750918 CXO 1 25867U 99040B 11362.00000000 -.00000971 00000-0 00000+0 0 6829 2 25867 070.9478 017.7115 8735616 277.6486 354.3974 00.37803186 8507 ____________________________________________________________________ These 2-Line ...Continue Reading

[list_settings.list_name] Current TLEs

December 26th 2011 PST

HST 1 20580U 90037B 11359.00429875 .00001927 00000-0 13091-3 0 9129 2 20580 028.4697 209.5320 0003107 350.4396 009.6280 15.02029362988364 ISS (ZARYA) 1 25544U 98067A 11359.31655822 .00023205 00000-0 29866-3 0 6938 2 25544 051.6450 279.3867 0024472 203.2360 301.8430 15.58595332750748 CXO 1 25867U 99040B 11359.37500000 -.00001038 00000-0 00000+0 0 6814 2 25867 070.9273 017.8938 8734990 277.6240 357.1375 00.37802811 8494 ____________________________________________________________________ These 2-Line ...Continue Reading

[list_settings.list_name] Current TLEs

December 25th 2011 PST

HST 1 20580U 90037B 11356.08066915 .00001823 00000-0 12318-3 0 9111 2 20580 028.4703 228.6483 0003192 318.8091 041.2227 15.02018610987926 ISS (ZARYA) 1 25544U 98067A 11358.48436594 -.00002741 00000-0 -27867-4 0 6864 2 25544 051.6453 283.5647 0024672 201.3446 311.3160 15.58551007750613 CXO 1 25867U 99040B 11359.37500000 -.00001038 00000-0 00000+0 0 6814 2 25867 070.9273 017.8938 8734990 277.6240 357.1375 00.37802811 8494 ____________________________________________________________________ These 2-Line ...Continue Reading

[list_settings.list_name] Current TLEs

December 24th 2011 PST

HST 1 20580U 90037B 11356.08066915 .00001823 00000-0 12318-3 0 9111 2 20580 028.4703 228.6483 0003192 318.8091 041.2227 15.02018610987926 ISS (ZARYA) 1 25544U 98067A 11357.38435306 .00021740 00000-0 28130-3 0 6795 2 25544 051.6444 289.0827 0024484 195.9567 260.7226 15.58499039750444 CXO 1 25867U 99040B 11356.70833333 -.00001132 00000-0 00000+0 0 6800 2 25867 070.9055 018.0911 8733716 277.5915 354.2219 00.37806942 8482 ____________________________________________________________________ These 2-Line ...Continue Reading

[list_settings.list_name] Current TLEs

December 23rd 2011 PST

HST 1 20580U 90037B 11356.08066915 .00001823 00000-0 12318-3 0 9111 2 20580 028.4703 228.6483 0003192 318.8091 041.2227 15.02018610987926 ISS (ZARYA) 1 25544U 98067A 11356.11871528 .00018731 00000-0 24397-3 0 6714 2 25544 051.6443 295.4325 0024595 191.4511 359.6263 15.58432185750246 CXO 1 25867U 99040B 11356.70833333 -.00001132 00000-0 00000+0 0 6800 2 25867 070.9055 018.0911 8733716 277.5915 354.2219 00.37806942 8482 ____________________________________________________________________ These 2-Line ...Continue Reading

[list_settings.list_name] Current TLEs

December 22nd 2011 PST

HST 1 20580U 90037B 11355.08397458 .00001881 00000-0 12752-3 0 9104 2 20580 028.4703 235.1646 0003202 306.8411 053.1934 15.02015669987776 ISS (ZARYA) 1 25544U 98067A 11355.39578785 .00017579 00000-0 22970-3 0 6659 2 25544 051.6450 299.0592 0024560 188.5232 263.9974 15.58399603750130 CXO 1 25867U 99040B 11356.70833333 -.00001132 00000-0 00000+0 0 6800 2 25867 070.9055 018.0911 8733716 277.5915 354.2219 00.37806942 8482 ____________________________________________________________________ These 2-Line ...Continue Reading
  • This mailing list is a public mailing list - anyone may join or leave, at any time.
  • This mailing list is announce-only.

International Space Station (ISS) / Hubble Space Telescope (HST) / Chandra X-Ray Observatory Orbital Data via EMAIL

Privacy Policy:

Private list